Probability
0 0 0 0 0 0 0 0 0 0 0 0 0 0 0 1 2 1 0 1 1 1 2 3 2 1 1 0 0 0 1 2 3 3 4 6 9 10 10 12 16 20 24 28
0 0 0 0 0 0 0 0 0 0 0 0 0 0 1 2 2 1 0 1 2 1 1 2 1 1 1 0 0 0 0 1 1 2 3 4 7 9 10 11 13 18 23 26
0 0 0 0 0 0 0 0 0 0 0 0 0 0 1 1 1 0 0 1 1 1 0 0 0 0 0 0 0 0 0 0 0 0 1 2 4 6 8 9 10 14 18 21
0 0 0 0 0 0 0 0 0 0 0 0 0 0 0 0 0 0 0 0 0 0 0 0 0 0 0 0 0 0 0 0 0 0 0 1 1 2 4 5 6 8 11 13
0 0 0 0 0 0 0 0 0 0 0 0 0 0 0 0 0 0 0 0 0 0 0 0 0 0 0 0 0 0 0 0 0 0 0 0 0 0 1 3 3 4 7 9
0 0 0 0 0 0 0 0 0 0 0 0 0 0 0 0 0 0 0 0 0 0 0 0 0 0 0 0 0 0 0 0 0 0 0 0 0 0 1 2 3 4 7 9
0 0 0 0 0 0 0 0 0 0 0 0 0 0 0 0 0 0 0 0 0 0 0 0 0 0 0 0 0 0 0 0 0 0 0 0 0 0 0 1 2 4 7 9
0 0 0 0 0 0 0 0 0 0 0 0 0 0 0 0 0 0 0 0 0 0 0 0 0 0 0 0 0 0 0 0 0 0 0 0 0 0 0 0 1 4 6 6
0 0 0 0 0 0 0 0 0 0 0 0 0 0 0 0 0 0 0 0 0 0 0 0 0 0 0 0 0 0 0 0 0 0 0 0 0 0 0 0 1 3 4 4
0 0 0 0 0 0 0 0 0 0 0 0 0 0 0 0 0 0 0 0 0 0 0 0 0 0 0 0 0 0 0 0 0 0 0 0 0 0 0 0 1 2 3 2
0 0 0 0 0 0 0 0 0 0 0 0 0 0 0 0 0 0 0 0 0 0 0 0 0 0 0 0 0 0 0 0 0 0 0 0 0 0 0 0 0 1 1 1
0 0 0 0 0 0 0 0 0 0 0 0 0 0 0 0 0 0 0 0 0 0 0 0 0 0 0 0 0 0 0 0 0 0 0 0 0 0 0 0 0 0 0 0
0 0 0 0 0 0 0 0 0 0 0 0 0 0 0 0 0 0 0 0 0 0 0 0 0 0 0 0 0 0 0 0 0 0 0 0 0 0 0 0 0 0 0 0
0 0 0 0 0 0 0 0 0 0 0 0 0 0 0 0 0 0 0 0 0 0 0 0 0 0 0 0 0 0 0 0 0 0 0 0 0 0 0 0 0 0 0 0
0 0 0 0 0 0 0 0 0 0 0 0 0 0 0 0 0 0 0 0 0 0 0 0 0 0 0 0 0 0 0 0 0 0 0 0 0 0 0 0 0 0 0 0
0 0 0 0 0 0 0 0 0 0 0 0 0 0 0 0 0 0 0 0 0 0 0 0 0 0 0 0 0 0 0 0 0 0 0 0 0 0 0 0 0 0 0 0
0 0 0 0 0 0 0 0 0 0 0 0 0 0 0 0 0 0 0 0 0 0 0 0 0 0 0 0 0 0 0 0 0 0 0 0 0 0 0 0 0 0 0 0
0 0 0 0 0 0 0 0 0 0 0 0 0 0 0 0 0 0 0 0 0 0 0 0 0 0 0 0 0 0 0 0 0 0 0 0 0 0 0 0 0 0 0 0
0 0 0 0 0 0 0 0 0 0 0 0 0 0 0 0 0 0 0 0 0 0 0 0 0 0 0 0 0 0 0 0 0 0 0 0 0 0 0 0 0 0 0 0
0 0 0 0 0 0 0 0 0 0 0 0 0 0 0 0 0 0 0 0 0 0 0 0 0 0 0 0 0 0 0 0 0 0 0 0 0 0 0 0 0 0 0 0
0 0 0 0 0 0 0 0 0 0 0 0 0 0 0 0 0 0 0 0 0 0 0 0 0 0 0 0 0 0 0 0 0 0 0 0 0 0 0 0 0 0 0 0
0 0 0 0 0 0 0 0 0 0 0 0 0 0 0 0 0 0 0 0 0 0 0 0 0 0 0 0 0 0 0 0 0 0 0 0 0 0 0 0 0 0 0 0
0 0 0 0 0 0 0 0 0 0 0 0 0 0 0 0 0 0 0 0 0 0 0 0 0 0 0 0 0 0 0 0 0 0 0 0 0 0 0 0 0 0 0 0
0 0 0 0 0 0 0 0 0 0 0 0 0 0 0 0 0 0 0 0 0 0 0 0 0 0 0 0 0 0 0 0 0 0 0 0 0 0 0 0 0 0 0 0
0 0 0 0 0 0 0 0 0 0 0 0 0 0 0 0 0 0 0 0 0 0 0 0 0 0 0 0 0 0 0 0 0 0 0 0 0 0 0 0 0 0 0 0
0 0 0 0 0 0 0 0 0 0 0 0 0 0 0 0 0 0 0 0 0 0 0 0 0 0 0 0 0 0 0 0 0 0 0 0 0 0 0 0 0 0 0 0
Wind_Speed
6 5 1 4 5 7 9 8 3 7 5 1 2 5 5 4 4 6 7 9 9 10 9 9 9 9 9 9 10 9 9 8 6 5 5 6 6 5 5 4 5 5 5 4
6 3 3 3 3 7 8 8 3 7 3 3 2 4 6 4 3 4 6 8 9 9 10 9 8 9 9 9 9 9 8 8 7 5 5 5 6 5 5 4 5 5 5 5
1 6 2 3 4 7 7 5 7 3 2 4 5 5 8 7 4 4 5 6 7 8 9 9 8 8 8 8 8 9 8 8 8 8 5 6 5 5 4 5 4 4 5 5
5 3 1 3 3 7 6 6 5 5 5 5 7 2 8 7 4 4 5 5 6 7 8 7 8 8 9 9 8 8 9 9 8 8 7 8 6 6 6 5 5 5 5 4
6 3 2 3 5 6 4 4 6 7 7 9 6 3 7 5 4 5 6 6 7 7 8 8 8 8 9 9 8 8 8 9 9 9 8 7 6 5 5 6 6 5 4 3
7 4 5 4 1 2 4 7 9 8 7 6 0 1 6 4 6 6 7 7 7 7 7 8 8 7 7 7 6 7 7 8 8 9 9 8 9 8 7 7 6 5 3 3
7 6 4 1 4 5 5 7 4 5 6 2 4 2 7 7 6 5 6 6 7 6 6 6 7 7 7 7 7 7 7 8 8 9 9 8 8 8 7 6 5 5 4 3
8 7 5 3 5 6 5 5 5 6 5 1 4 4 7 7 4 3 3 4 5 5 5 5 6 6 6 7 7 7 7 8 8 8 8 8 8 5 5 6 5 5 4 4
3 8 6 4 3 5 6 4 4 5 9 6 4 8 8 5 3 2 4 5 5 6 5 5 6 6 6 6 6 6 7 7 8 8 7 7 8 7 7 7 6 5 4 4
7 5 6 4 4 4 3 6 5 5 5 5 1 5 5 4 4 5 5 6 6 6 6 5 5 6 5 5 5 6 6 7 7 8 8 7 7 7 7 6 7 6 6 5
6 2 7 5 2 2 2 2 2 4 2 3 4 4 5 4 4 4 5 5 5 5 6 5 5 5 5 6 6 6 6 7 7 8 7 7 7 7 7 7 7 7 6 6
2 6 3 6 6 2 3 5 5 4 4 2 2 4 5 4 3 3 3 4 4 4 5 5 5 5 5 6 6 6 7 7 6 7 7 7 7 7 7 7 8 7 7 6
2 5 2 6 5 4 3 1 3 4 4 3 3 4 5 4 3 3 2 2 2 3 4 4 4 4 4 5 6 7 7 6 6 6 7 8 8 8 8 8 8 8 8 7
4 5 4 5 5 1 3 3 3 5 4 4 2 4 4 4 2 2 2 2 2 3 4 4 4 4 4 4 5 6 6 6 6 6 7 8 8 8 8 8 8 8 8 8
4 6 2 2 1 2 3 3 5 6 5 5 4 2 1 4 3 2 2 1 2 3 4 5 5 4 4 4 4 5 5 6 7 7 7 8 8 8 8 8 8 8 8 8
5 5 3 4 4 4 7 7 7 7 7 6 5 3 4 5 3 2 2 1 1 2 4 5 6 5 5 5 4 5 5 6 7 7 7 7 7 8 8 8 8 8 8 8
5 5 4 4 5 5 8 9 10 8 6 5 6 2 6 5 4 3 2 2 1 2 3 4 5 5 6 6 5 5 5 6 7 7 6 7 7 7 7 8 8 7 7 7
3 3 3 5 3 5 2 4 3 6 8 7 5 3 5 4 4 3 2 2 2 2 3 4 4 4 5 6 6 5 5 6 7 6 6 6 7 7 7 7 7 7 6 6
4 3 4 4 5 5 6 5 4 4 6 8 7 6 7 5 4 5 5 3 2 3 3 3 3 3 4 5 5 5 6 6 6 6 6 6 6 6 7 7 7 6 6 6
4 5 5 4 4 4 6 8 5 2 5 6 8 7 8 8 5 4 8 6 4 4 3 1 2 3 4 4 4 5 6 6 6 5 5 5 5 5 6 6 6 5 5 5
5 5 6 6 6 2 9 9 5 3 2 4 5 7 8 8 4 4 9 8 6 4 3 0 1 2 3 4 4 5 6 5 4 4 4 5 5 5 5 5 5 4 4 5
7 5 6 5 5 1 10 8 5 1 4 2 3 5 7 6 6 7 8 7 6 5 3 1 1 1 1 3 3 4 4 3 3 3 3 3 4 5 5 5 5 5 5 5
4 3 2 2 1 6 7 5 4 1 1 3 3 4 6 7 7 7 7 7 6 5 4 3 2 2 1 2 2 3 2 2 2 2 2 2 3 4 5 5 6 6 6 5
5 2 2 3 3 5 8 6 4 3 3 2 4 4 6 7 7 7 6 6 6 5 4 3 3 2 1 2 2 1 2 1 1 1 1 2 4 4 5 4 5 5 5 5
1 3 3 5 5 3 5 7 7 5 5 4 4 5 6 7 7 8 7 6 6 6 4 3 3 2 2 2 2 2 1 2 2 1 1 3 3 3 3 4 4 4 4 3
7 6 5 4 3 2 3 7 8 7 7 6 6 7 7 6 7 7 6 6 5 6 6 5 4 3 3 2 2 3 2 2 2 1 2 1 1 1 1 3 3 5 4 4
Wind_Direction
210 237 315 19 352 319 309 307 309 106 108 84 132 134 121 83 49 18 17 18 18 9 11 24 10 7 1 0 357 352 349 343 342 338 329 322 316 311 302 294 291 284 266 252
211 193 54 7 318 293 291 298 326 109 107 300 206 171 131 113 78 45 20 19 16 6 1 15 10 6 1 360 356 349 349 342 343 334 323 308 306 299 296 292 284 276 267 253
165 71 55 300 300 314 306 343 348 353 157 242 250 210 153 145 117 74 42 31 17 5 1 5 5 3 359 358 356 349 344 343 344 338 328 321 312 306 308 306 295 282 267 255
97 87 291 284 2 342 332 31 334 298 269 241 210 237 147 149 126 74 45 36 23 10 2 9 7 4 359 358 355 347 349 347 346 339 333 326 321 316 309 305 296 290 267 258
107 81 329 339 29 336 349 327 286 270 264 272 235 255 131 140 75 52 41 29 23 11 6 8 7 4 359 357 353 348 353 349 345 341 335 328 325 312 307 309 307 303 292 274
95 74 24 21 357 276 281 263 248 240 251 258 98 345 103 67 42 27 23 22 20 6 7 4 1 1 355 352 352 348 352 347 344 343 341 341 335 326 321 322 321 318 310 294
160 141 116 322 279 211 263 293 276 231 210 127 81 85 89 78 54 28 13 18 12 4 9 359 357 356 354 351 353 348 354 347 346 346 343 342 339 334 331 329 324 328 323 314
191 145 115 50 350 331 320 310 325 324 335 68 151 89 101 94 86 40 24 35 11 9 8 1 355 354 351 353 350 349 352 347 347 345 341 343 345 341 337 337 334 332 323 309
324 104 107 74 357 322 316 332 353 301 288 288 124 115 127 125 105 47 21 27 23 10 1 2 357 359 357 353 349 351 351 347 347 344 342 351 354 353 349 346 343 337 336 333
324 108 133 131 231 201 311 328 306 293 334 326 66 103 102 90 43 23 20 28 25 8 359 6 4 4 357 352 343 351 352 353 349 353 358 1 357 353 349 349 350 349 350 353
305 254 146 178 232 15 291 264 308 294 279 320 338 74 74 71 57 26 22 31 24 5 359 5 9 6 359 357 353 356 359 1 357 358 359 1 358 358 358 360 3 2 1 7
318 300 176 130 94 56 329 336 332 322 344 325 296 98 96 95 84 60 34 30 18 6 3 11 13 10 2 356 356 2 2 1 1 1 3 3 3 6 6 5 6 8 10 12
343 279 224 155 157 176 214 223 310 307 284 279 316 113 138 122 104 83 56 36 25 11 9 16 9 10 3 2 8 6 1 359 7 12 11 10 9 9 6 4 4 12 14 13
325 272 308 4 30 115 188 184 241 280 290 319 12 99 157 140 125 118 104 59 39 18 12 12 9 13 5 17 15 4 355 359 13 23 19 13 9 8 6 6 9 14 15 17
254 278 305 58 20 310 270 234 226 253 285 308 3 5 77 120 131 128 124 85 26 20 14 11 14 15 3 20 14 5 3 10 21 29 23 13 10 10 9 10 16 17 17 19
238 281 274 232 204 239 257 244 234 242 254 266 281 278 112 110 132 150 156 128 33 25 17 16 11 13 3 16 16 13 17 21 28 34 27 14 14 14 9 12 19 20 18 18
218 260 286 266 166 244 254 228 219 225 226 236 255 227 137 153 172 180 163 136 100 42 27 27 10 10 2 12 20 16 25 32 33 30 27 19 18 17 12 14 17 18 20 22
266 269 274 277 219 252 108 97 179 226 235 227 225 164 152 170 161 164 164 152 127 89 49 39 9 0 1 14 16 9 35 42 37 26 24 24 21 19 14 14 14 17 21 22
309 285 276 274 288 272 148 159 171 215 251 228 213 189 168 166 176 193 177 155 114 92 75 51 352 344 14 20 8 8 35 45 38 26 22 24 21 18 17 15 12 14 21 23
272 278 273 286 283 299 105 125 135 216 260 204 191 183 172 175 212 200 159 146 130 111 97 57 332 1 20 14 2 19 38 42 34 23 22 20 18 21 22 15 11 11 17 23
197 215 236 264 272 288 117 124 140 217 27 109 165 173 175 188 192 123 137 139 134 130 127 128 333 24 15 8 10 31 43 41 34 25 24 19 13 20 29 19 14 15 17 25
208 214 214 227 252 197 134 150 197 233 110 144 179 175 173 166 143 128 132 136 142 147 153 177 305 359 29 24 12 45 52 40 34 27 26 32 28 24 27 20 17 18 17 27
219 270 313 298 30 118 171 196 226 297 214 167 188 179 167 165 161 154 155 156 162 168 166 175 232 255 186 91 32 39 54 31 14 18 39 47 47 53 40 26 28 23 17 23
185 210 288 292 267 191 199 218 218 216 235 190 184 178 173 175 171 167 174 173 170 171 170 177 221 249 198 127 110 69 53 353 333 5 49 72 55 54 57 41 34 36 19 15
356 151 236 256 261 239 200 210 214 200 209 204 191 183 183 182 182 178 184 185 174 166 167 178 217 244 234 168 157 132 89 318 313 347 69 89 89 71 78 79 47 44 56 37
257 219 218 248 265 235 224 192 200 200 201 203 198 190 187 188 189 186 187 183 175 171 168 181 211 234 242 190 163 148 142 273 301 29 49 71 106 104 106 127 109 50 63 63